Location: Unspecified
(0.0000°N, 0.0000°E)
Time: 00:52:12
(UTC+00:00)

A-11 Canister half - Pass Details

Date: 16 February 2023
Orbit: 1526 x 1682 km, 47.3° (Epoch: 29 March)

Event Time Altitude Azimuth Distance (km) Brightness Sun altitude
Rises 12:46:16 0° 292° (WNW) 4,779 11.6 75.3°
Reaches altitude 10° 12:50:04 10° 279° (W) 3,821 11.3 74.8°
Maximum altitude 12:57:39 26° 227° (SW) 2,834 11.1 73.6°
Drops below altitude 10° 13:05:28 10° 175° (S) 3,915 11.5 72.3°
Sets 13:09:28 0° 163° (SSE) 4,920 11.8 71.6°
